Powrót do katalogu

GLOBALSTAR M059

AktywnyŁącznośćLEO
NORAD 25944·PAYLOAD·🇺🇸 United States

Wystrzelony Oct 18, 1999 z Baikonur Cosmodrome

Loading…

Następne Przeloty (najbliższe 24 godziny)

TLE

ŚwieżeSource: Space-Track

Epoka: Sep 14, 2026, 11:09 UTC

1 25944U 99058B   26257.46460500 -.00000070  00000-0  20229-3 0  9998
2 25944  52.0019  58.1737 0001084  99.0331 293.7641 12.00002154628588

Śledź GLOBALSTAR M059 w czasie rzeczywistym z AllMySat

Download on the App Store